Regional Weather Roundup
Issued by NWS

Home | Current Version | Previous Version | Text Only | Print | Product List | Glossary On
Versions: 1 2 3 4 5 6 7 8 9 10 11 12 13 14 15 16 17 18 19 20 21 22 23 24 25 26 27 28 29 30 31 32 33 34 35 36 37 38 39 40 41 42 43 44 45 46 47 48 49 50
000
ASUS43 KBIS 280702
RWRND

NORTH DAKOTA REGIONAL WEATHER ROUNDUP
NATIONAL WEATHER SERVICE BISMARCK ND
200 AM CDT SAT MAY 28 2016

NOTE: "FAIR" INDICATES FEW OR NO CLOUDS BELOW 12,000 FEET WITH NO
SIGNIFICANT WEATHER AND/OR OBSTRUCTIONS TO VISIBILITY.


NDZ001>003-009>011-017-280800-
NORTHWEST NORTH DAKOTA

CITY           SKY/WX    TMP DP  RH WIND       PRES   REMARKS
WILLISTON      CLOUDY    58  54  86 E3        29.87R
MINOT          CLOUDY    57  54  89 NE12      29.88R
MINOT AFB      CLOUDY    55  53  90 NE8       29.87S
$$

NDZ018>021-031>035-040>046-280800-
SOUTHWEST NORTH DAKOTA

CITY           SKY/WX    TMP DP  RH WIND       PRES   REMARKS
BISMARCK       CLOUDY    56  50  80 CALM      29.84S
DICKINSON      PTCLDY    48  45  89 NE5       29.85R
GARRISON         N/A     57  54  89 E12       29.86R
HETTINGER ARPT CLEAR     41  38  89 CALM      29.87S
$$

NDZ004>008-012>016-024-026-027-054-280800-
NORTHEAST NORTH DAKOTA

CITY           SKY/WX    TMP DP  RH WIND       PRES   REMARKS
GRAND FORKS    CLOUDY    62  58  86 S5        29.81R
GRND FRKS AFB  CLOUDY    61  60  95 NW2       29.82S
DEVILS LAKE    CLOUDY    57  55  93 N13       29.86R
$$

NDZ022-023-025-028>030-036>039-047>053-280800-
SOUTHEAST NORTH DAKOTA

CITY           SKY/WX    TMP DP  RH WIND       PRES   REMARKS
FARGO          CLOUDY    61  57  87 E3        29.79F
JAMESTOWN      CLOUDY    60  55  83 N6        29.81R
$$





USA.gov is the U.S. government's official web portal to all federal, state and local government web resources and services.